DW6513 Weather Reports


Display with metric or nautical units.
time (UTC)temp
F
wind
direction
speed
MPH
gust
MPH
rain 1hr
in
rain 24hr
in
rain mn
in
humidity
%
barometer
mb
20260901082803 75 24 0.0 0.0 0.00 0.00 0.00 71 1016.3
20260901082306 75 205 0.0 0.0 0.00 0.00 0.00 71 1016.3
20260901081305 75 106 0.0 0.0 0.00 0.00 0.00 71 1016.3
20260901080803 75 177 0.0 0.0 0.00 0.00 0.00 71 1016.2
20260901080304 76 205 0.0 0.0 0.00 0.00 0.00 70 1016.2
20260901075803 76 100 0.0 0.0 0.00 0.00 0.00 70 1016.2
20260901074803 76 83 0.0 0.0 0.00 0.00 0.00 70 1016.4
20260901074304 76 206 0.0 0.0 0.00 0.00 0.00 70 1016.4
20260901073803 76 100 0.0 0.0 0.00 0.00 0.00 69 1016.4
20260901073303 76 100 0.0 0.0 0.00 0.00 0.00 69 1016.4
20260901072803 76 136 0.0 0.0 0.00 0.00 0.00 69 1016.2
20260901072308 76 125 0.0 0.0 0.00 0.00 0.00 69 1016.2
20260901071804 77 25 0.0 2.0 0.00 0.00 0.00 69 1016.2
20260901071303 77 125 0.0 2.0 0.00 0.00 0.00 68 1016.2
20260901070803 77 230 0.0 0.0 0.00 0.00 0.00 69 1016.2
20260901070304 77 162 0.0 0.0 0.00 0.00 0.00 68 1016.2
20260901065804 77 135 0.0 0.0 0.00 0.00 0.00 68 1016.2
20260901065305 77 152 0.0 0.0 0.00 0.00 0.00 68 1016.2
20260901064804 77 177 0.0 0.0 0.00 0.00 0.00 68 1016.3
20260901063303 77 159 0.0 0.0 0.00 0.00 0.00 67 1016.3
20260901062804 77 136 0.0 0.0 0.00 0.00 0.00 67 1016.4
20260901062309 77 145 0.0 0.0 0.00 0.00 0.00 67 1016.4
20260901061804 78 122 1.0 0.0 0.00 0.00 0.00 66 1016.4
20260901061304 78 139 1.0 3.0 0.00 0.00 0.00 66 1016.4
20260901060804 78 86 0.0 3.0 0.00 0.00 0.00 66 1016.2
20260901055803 78 122 1.0 3.0 0.00 0.00 0.00 65 1016.2
20260901055306 78 100 2.0 3.0 0.00 0.00 0.00 66 1016.2
20260901054804 78 126 1.0 5.0 0.00 0.00 0.00 65 1016.3
20260901054303 78 124 1.0 5.0 0.00 0.00 0.00 65 1016.3
20260901053304 78 110 1.0 5.0 0.00 0.00 0.00 64 1016.3
20260901052804 79 123 1.0 5.0 0.00 0.00 0.00 65 1016.5
20260901052306 79 71 1.0 3.0 0.00 0.00 0.00 64 1016.5
20260901051804 79 138 2.0 3.0 0.00 0.00 0.00 64 1016.5
20260901050823 79 145 2.0 7.0 0.00 0.00 0.00 64 1016.3
20260901050304 79 258 1.0 3.0 0.00 0.00 0.00 63 1016.3
20260901045306 79 106 1.0 3.0 0.00 0.00 0.00 63 1016.3
20260901044804 79 240 1.0 6.0 0.00 0.00 0.00 62 1016.4
20260901044304 80 100 1.0 6.0 0.00 0.00 0.00 62 1016.4
20260901043304 80 100 0.0 2.0 0.00 0.00 0.00 61 1016.4
20260901041803 80 222 2.0 3.0 0.00 0.00 0.00 60 1016.4
20260901041304 80 117 3.0 5.0 0.00 0.00 0.00 60 1016.4
20260901040804 81 108 4.0 8.0 0.00 0.00 0.00 59 1016.4
20260901040304 81 140 3.0 7.0 0.00 0.00 0.00 59 1016.4
20260901035803 81 83 2.0 7.0 0.00 0.00 0.00 58 1016.4
20260901035305 81 100 1.0 6.0 0.00 0.00 0.00 58 1016.4
20260901034304 81 85 3.0 6.0 0.00 0.00 0.00 57 1016.6
20260901033804 81 95 3.0 6.0 0.00 0.00 0.00 57 1016.6
20260901033303 81 120 2.0 5.0 0.00 0.00 0.00 57 1016.6
20260901032306 81 181 1.0 5.0 0.00 0.00 0.00 57 1016.3
20260901031805 81 197 1.0 5.0 0.00 0.00 0.00 57 1016.3
20260901030803 81 140 0.0 3.0 0.00 0.00 0.00 56 1016.2
20260901030304 82 150 0.0 2.0 0.00 0.00 0.00 56 1016.2
20260901025803 82 341 0.0 3.0 0.00 0.00 0.00 56 1016.2
20260901025306 82 102 1.0 5.0 0.00 0.00 0.00 56 1016.2
20260901024803 82 109 1.0 5.0 0.00 0.00 0.00 56 1016.1
20260901023803 82 159 1.0 5.0 0.00 0.00 0.00 56 1016.1
20260901023304 83 145 1.0 6.0 0.00 0.00 0.00 56 1016.1
20260901022306 83 141 1.0 0.0 0.00 0.00 0.00 54 1016.2
20260901021803 83 339 1.0 6.0 0.00 0.00 0.00 55 1016.2
20260901021303 84 148 0.0 2.0 0.00 0.00 0.00 54 1016.2
20260901020303 84 97 0.0 0.0 0.00 0.00 0.00 54 1015.5
20260901015803 84 83 0.0 0.0 0.00 0.00 0.00 54 1015.5
20260901015305 85 102 0.0 2.0 0.00 0.00 0.00 54 1015.5
20260901014804 85 136 0.0 0.0 0.00 0.00 0.00 55 1015.8
20260901014303 85 60 0.0 0.0 0.00 0.00 0.00 53 1015.9
20260901013803 85 100 0.0 0.0 0.00 0.00 0.00 52 1015.9
20260901013304 85 321 0.0 3.0 0.00 0.00 0.00 50 1015.9
20260901012804 85 327 0.0 3.0 0.00 0.00 0.00 50 1015.6
20260901011804 86 353 0.0 0.0 0.00 0.00 0.00 49 1015.5
20260901010803 86 173 1.0 3.0 0.00 0.00 0.00 48 1015.3
20260901010304 87 119 1.0 3.0 0.00 0.00 0.00 47 1015.2
20260901005804 87 106 1.0 3.0 0.00 0.00 0.00 45 1015.2
20260901005306 87 64 0.0 3.0 0.00 0.00 0.00 43 1015.2
20260901004803 88 289 1.0 0.0 0.00 0.00 0.00 41 1015.1
20260901004303 88 188 2.0 5.0 0.00 0.00 0.00 41 1015.1
20260901003804 88 114 2.0 5.0 0.00 0.00 0.00 40 1015.1
20260901003304 89 124 2.0 3.0 0.00 0.00 0.00 39 1015.1
20260901002803 89 331 2.0 3.0 0.00 0.00 0.00 38 1015.2
20260901002305 89 103 2.0 5.0 0.00 0.00 0.00 37 1015.2
20260901001804 90 145 1.0 5.0 0.00 0.00 0.00 37 1015.2
20260901001304 90 124 1.0 5.0 0.00 0.00 0.00 37 1015.2
20260901000304 91 145 2.0 5.0 0.00 0.00 0.00 35 1015.2
20260831235804 91 150 2.0 5.0 0.00 0.00 0.00 35 1015.2
20260831235306 92 122 1.0 5.0 0.00 0.00 0.00 34 1015.2
20260831234804 92 100 2.0 5.0 0.00 0.00 0.00 34 1015.4
20260831234304 93 119 2.0 6.0 0.00 0.00 0.00 34 1015.4
20260831233804 93 84 2.0 8.0 0.00 0.00 0.00 34 1015.4
20260831232803 94 145 3.0 7.0 0.00 0.00 0.00 31 1015.0
20260831232305 95 100 2.0 7.0 0.00 0.00 0.00 31 1014.9
20260831231803 96 91 2.0 6.0 0.00 0.00 0.00 29 1014.9
20260831231304 97 122 2.0 5.0 0.00 0.00 0.00 28 1014.9
20260831230304 99 146 2.0 3.0 0.00 0.00 0.00 25 1015.1
20260831225306 102 78 2.0 5.0 0.00 0.00 0.00 24 1015.1
20260831224804 103 135 2.0 8.0 0.00 0.00 0.00 24 1015.2
20260831224304 103 144 2.0 5.0 0.00 0.00 0.00 24 1015.2
20260831223803 102 242 3.0 3.0 0.00 0.00 0.00 24 1015.2
20260831223304 102 170 2.0 7.0 0.00 0.00 0.00 24 1015.2
20260831222807 101 135 5.0 7.0 0.00 0.00 0.00 31 1015.6
20260831195804 100 145 5.0 8.0 0.00 0.00 0.00 31 1015.6
20260831195306 100 122 5.0 9.0 0.00 0.00 0.00 31 1015.6
20260831194804 99 253 5.0 15.0 0.00 0.00 0.00 30 1015.8
20260831194304 100 220 5.0 15.0 0.00 0.00 0.00 29 1015.8
20260831193803 100 145 3.0 7.0 0.00 0.00 0.00 31 1015.8
20260831192803 100 122 3.0 7.0 0.00 0.00 0.00 33 1016.2
20260831192305 100 95 2.0 6.0 0.00 0.00 0.00 32 1016.2
20260831191804 99 302 3.0 7.0 0.00 0.00 0.00 32 1016.2
20260831191304 99 151 5.0 7.0 0.00 0.00 0.00 33 1016.2
20260831190804 99 212 5.0 6.0 0.00 0.00 0.00 33 1016.4
20260831185804 98 280 3.0 6.0 0.00 0.00 0.00 35 1016.4
20260831185306 98 212 2.0 10.0 0.00 0.00 0.00 36 1016.4
20260831184803 100 145 3.0 10.0 0.00 0.00 0.00 35 1016.4
20260831183804 100 258 2.0 6.0 0.00 0.00 0.00 38 1016.4
20260831183304 99 107 3.0 6.0 0.00 0.00 0.00 38 1016.4
20260831182804 98 302 5.0 7.0 0.00 0.00 0.00 40 1016.6
20260831181804 97 78 6.0 9.0 0.00 0.00 0.00 41 1016.6
20260831181304 95 60 5.0 13.0 0.00 0.00 0.00 40 1016.6
20260831180804 95 122 5.0 13.0 0.00 0.00 0.00 40 1016.9
20260831180304 94 194 5.0 15.0 0.00 0.00 0.00 43 1016.9
20260831175306 94 218 3.0 12.0 0.00 0.00 0.00 44 1016.9
20260831174304 93 3 2.0 3.0 0.00 0.00 0.00 45 1017.0
20260831173803 92 78 3.0 6.0 0.00 0.00 0.00 46 1017.0
20260831173304 92 128 5.0 10.0 0.00 0.00 0.00 46 1017.0
20260831172803 91 78 5.0 10.0 0.00 0.00 0.00 46 1017.4
20260831172306 91 162 3.0 8.0 0.00 0.00 0.00 46 1017.4
20260831171804 91 122 2.0 6.0 0.00 0.00 0.00 47 1017.4
20260831171303 91 214 2.0 6.0 0.00 0.00 0.00 47 1017.4
20260831170804 90 212 2.0 6.0 0.00 0.00 0.00 47 1017.7
20260831170304 90 134 3.0 8.0 0.00 0.00 0.00 47 1017.7
20260831165804 89 145 3.0 13.0 0.00 0.00 0.00 48 1017.7
20260831165305 89 141 3.0 13.0 0.00 0.00 0.00 48 1017.7
20260831164303 89 241 2.0 5.0 0.00 0.00 0.00 49 1017.8
20260831163804 89 235 3.0 3.0 0.00 0.00 0.00 49 1017.8
20260831163304 89 117 3.0 5.0 0.00 0.00 0.00 49 1017.8
20260831162803 88 168 2.0 5.0 0.00 0.00 0.00 50 1017.6
20260831162306 88 280 3.0 7.0 0.00 0.00 0.00 49 1017.6
20260831161804 87 145 3.0 7.0 0.00 0.00 0.00 50 1017.6
20260831161304 87 302 3.0 6.0 0.00 0.00 0.00 50 1017.6
20260831160304 87 80 3.0 5.0 0.00 0.00 0.00 50 1017.6
20260831155805 86 100 2.0 5.0 0.00 0.00 0.00 52 1017.6
20260831155306 86 131 2.0 5.0 0.00 0.00 0.00 51 1017.6
20260831154804 86 78 2.0 3.0 0.00 0.00 0.00 53 1017.7
20260831154303 85 233 3.0 5.0 0.00 0.00 0.00 53 1017.7
20260831153804 85 145 3.0 5.0 0.00 0.00 0.00 53 1017.7
20260831152804 85 212 3.0 2.0 0.00 0.00 0.00 54 1017.4
20260831152306 84 66 3.0 9.0 0.00 0.00 0.00 54 1017.4
20260831151803 84 168 3.0 8.0 0.00 0.00 0.00 54 1017.4
20260831151303 84 145 3.0 8.0 0.00 0.00 0.00 54 1017.4
20260831150804 83 122 2.0 9.0 0.00 0.00 0.00 55 1017.5
20260831150304 83 90 3.0 9.0 0.00 0.00 0.00 55 1017.5
20260831145804 83 122 4.0 7.0 0.00 0.00 0.00 56 1017.5
20260831145306 82 100 3.0 7.0 0.00 0.00 0.00 57 1017.5
20260831144804 82 100 2.0 5.0 0.00 0.00 0.00 57 1017.7
20260831144304 82 21 1.0 5.0 0.00 0.00 0.00 58 1017.7
20260831143803 81 129 1.0 3.0 0.00 0.00 0.00 58 1017.7
20260831143304 81 280 2.0 5.0 0.00 0.00 0.00 58 1017.7
20260831142803 80 132 2.0 5.0 0.00 0.00 0.00 59 1017.8
20260831141804 80 41 2.0 6.0 0.00 0.00 0.00 59 1017.8
20260831141303 80 145 1.0 5.0 0.00 0.00 0.00 60 1017.8
20260831140304 79 163 1.0 7.0 0.00 0.00 0.00 60 1017.5
20260831135804 79 100 1.0 6.0 0.00 0.00 0.00 60 1017.5
20260831135306 78 248 1.0 5.0 0.00 0.00 0.00 61 1017.5
20260831134804 78 122 1.0 5.0 0.00 0.00 0.00 61 1017.5
20260831134304 78 235 1.0 3.0 0.00 0.00 0.00 62 1017.5
20260831133804 77 122 1.0 0.0 0.00 0.00 0.00 63 1017.5
20260831132803 76 280 0.0 3.0 0.00 0.00 0.00 67 1017.2
20260831132306 76 280 0.0 0.0 0.00 0.00 0.00 67 1017.2
20260831131804 76 145 1.0 2.0 0.00 0.00 0.00 67 1017.2
20260831130804 75 122 0.0 0.0 0.00 0.00 0.00 68 1016.9
20260831130304 75 78 0.0 0.0 0.00 0.00 0.00 68 1016.9
20260831125803 74 127 0.0 0.0 0.00 0.00 0.00 68 1016.9
20260831124804 74 275 0.0 0.0 0.00 0.00 0.00 69 1016.9
20260831124303 73 207 0.0 0.0 0.00 0.00 0.00 69 1016.9
20260831123803 73 135 0.0 0.0 0.00 0.00 0.00 69 1016.9
20260831123303 73 206 0.0 0.0 0.00 0.00 0.00 69 1016.9
20260831122804 73 78 0.0 0.0 0.00 0.00 0.00 70 1016.7
20260831122306 72 233 0.0 0.0 0.00 0.00 0.00 70 1016.7
20260831121304 72 145 0.0 0.0 0.00 0.00 0.00 70 1016.7
20260831120803 72 128 0.0 0.0 0.00 0.00 0.00 70 1016.7
20260831120303 72 49 0.0 0.0 0.00 0.00 0.00 70 1016.7
20260831115804 71 178 0.0 0.0 0.00 0.00 0.00 70 1016.7
20260831115306 71 98 0.0 0.0 0.00 0.00 0.00 70 1016.7
20260831114804 71 299 0.0 0.0 0.00 0.00 0.00 70 1016.6
20260831114303 72 252 1.0 0.0 0.00 0.00 0.00 70 1016.6
20260831113804 72 122 1.0 3.0 0.00 0.00 0.00 70 1016.6
20260831113304 72 101 0.0 3.0 0.00 0.00 0.00 70 1016.6
20260831112804 72 145 0.0 0.0 0.00 0.00 0.00 69 1016.6
20260831112306 72 107 0.0 0.0 0.00 0.00 0.00 69 1016.6
20260831111803 72 112 0.0 0.0 0.00 0.00 0.00 69 1016.6
20260831111304 72 104 0.0 0.0 0.00 0.00 0.00 69 1016.6
20260831110804 73 2 0.0 0.0 0.00 0.00 0.00 69 1016.6
20260831105804 73 140 0.0 0.0 0.00 0.00 0.00 69 1016.6
20260831105306 72 171 0.0 0.0 0.00 0.00 0.00 69 1016.6
20260831104803 72 177 0.0 0.0 0.00 0.00 0.00 69 1016.3
20260831103804 72 258 0.0 0.0 0.00 0.00 0.00 69 1016.3
20260831103303 69 163 0.0 2.0 0.00 0.00 0.00 69 1016.3
20260831102804 70 102 0.0 2.0 0.00 0.00 0.00 69 1016.7
20260831102305 70 100 0.0 0.0 0.00 0.00 0.00 68 1016.8
20260831101804 70 153 0.0 0.0 0.00 0.00 0.00 69 1016.8
20260831100804 70 147 0.0 0.0 0.00 0.00 0.00 68 1017.0
20260831095804 70 175 0.0 0.0 0.00 0.00 0.00 68 1017.0
20260831094804 70 141 0.0 0.0 0.00 0.00 0.00 68 1016.8
20260831094303 70 144 0.0 0.0 0.00 0.00 0.00 68 1016.8
20260831093804 70 92 0.0 0.0 0.00 0.00 0.00 67 1016.8
20260831092306 70 280 0.0 0.0 0.00 0.00 0.00 66 1016.7
20260831091804 70 190 0.0 0.0 0.00 0.00 0.00 66 1016.7
20260831091304 71 121 0.0 0.0 0.00 0.00 0.00 66 1016.7
20260831085804 71 78 0.0 0.0 0.00 0.00 0.00 65 1016.4
20260831085306 71 122 0.0 0.0 0.00 0.00 0.00 66 1016.4
20260831084804 71 170 0.0 0.0 0.00 0.00 0.00 65 1016.3
20260831084304 71 122 0.0 0.0 0.00 0.00 0.00 66 1016.3
20260831083804 71 197 0.0 0.0 0.00 0.00 0.00 65 1016.3
20260831083304 71 142 0.0 0.0 0.00 0.00 0.00 65 1016.3